Location: Newark
(32.2028°N, 95.8492°W)
Time: 14:51:29
(UTC+00:00)

Envisat - Visible Passes

Search period start: 17 September 2019 00:00
Search period end: 27 September 2019 00:00
Orbit: 764 x 766 km, 98.1° (Epoch: 17 September)

Date Brightness Start Highest point End Pass type
(mag) Time Alt. Az. Time Alt. Az. Time Alt. Az.
17 Sep 4.3 01:10:29 10° S 01:15:17 43° W 01:20:07 10° NNW visible
19 Sep 5.5 01:36:55 10° SSW 01:40:54 23° W 01:44:54 10° NW visible
20 Sep 3.8 00:59:02 10° S 01:04:00 57° W 01:09:01 10° NNW visible
21 Sep 6.1 02:04:41 10° WSW 02:06:36 12° W 02:08:32 10° WNW visible
22 Sep 5.0 01:25:10 10° SSW 01:29:35 30° W 01:34:02 10° NW visible
23 Sep 3.3 00:47:42 10° S 00:52:45 75° WSW 00:57:50 10° NNW visible
24 Sep 5.9 01:52:10 10° SW 01:55:15 16° W 01:58:20 10° NW visible
25 Sep 4.5 01:13:35 10° SSW 01:18:18 39° W 01:23:02 10° NNW visible
26 Sep 3.0 00:36:27 10° SSE 00:41:30 84° ENE 00:46:36 10° N visible
